Wetterdaten: Mittwoch, 07.02.2018
Datum Zeit Temp. A. Aussen2m Boden Feuchte A. Feuchte 2 Luftdruck Regen Wind Richtung Richtung Sonnenschein
07.02.2018 00:00 -0,3 C -0,1 C -0,3 C 81 % 79 % 1011,9 hPa 0,0 l/m 6,1 km/h (2 Bft) N-NO 15 0 min
07.02.2018 00:05 -0,3 C -0,2 C -0,3 C 81 % 79 % 1011,9 hPa 0,0 l/m 7,9 km/h (2 Bft) N 355 0 min
07.02.2018 00:10 -0,4 C -0,2 C -0,3 C 81 % 79 % 1011,9 hPa 0,0 l/m 5,4 km/h (2 Bft) NO 35 0 min
07.02.2018 00:15 -0,4 C -0,2 C -0,3 C 81 % 79 % 1011,9 hPa 0,0 l/m 10,9 km/h (2 Bft) N 350 0 min
07.02.2018 00:20 -0,4 C -0,3 C -0,3 C 81 % 79 % 1011,9 hPa 0,0 l/m 8,5 km/h (2 Bft) N 10 0 min
07.02.2018 00:25 -0,4 C -0,3 C -0,3 C 82 % 79 % 1011,9 hPa 0,0 l/m 7,3 km/h (2 Bft) N 5 0 min
07.02.2018 00:30 -0,4 C -0,3 C -0,3 C 82 % 79 % 1011,9 hPa 0,0 l/m 6,1 km/h (2 Bft) N-NW 335 0 min
07.02.2018 00:35 -0,5 C -0,3 C -0,3 C 82 % 80 % 1011,9 hPa 0,0 l/m 9,1 km/h (2 Bft) N-NO 15 0 min
07.02.2018 00:40 -0,5 C -0,3 C -0,3 C 82 % 80 % 1011,9 hPa 0,0 l/m 8,5 km/h (2 Bft) N-NO 20 0 min
07.02.2018 00:45 -0,5 C -0,3 C -0,5 C 82 % 80 % 1010,9 hPa 0,0 l/m 11,5 km/h (2 Bft) N 350 0 min
07.02.2018 00:50 -0,5 C -0,4 C -0,5 C 82 % 80 % 1010,9 hPa 0,0 l/m 10,3 km/h (2 Bft) N-NO 15 0 min
07.02.2018 00:55 -0,6 C -0,4 C -0,5 C 82 % 80 % 1010,9 hPa 0,0 l/m 9,7 km/h (2 Bft) N-NO 15 0 min
07.02.2018 01:00 -0,6 C -0,4 C -0,5 C 82 % 80 % 1011,9 hPa 0,0 l/m 8,5 km/h (2 Bft) N-NO 20 0 min
07.02.2018 01:05 -0,6 C -0,4 C -0,5 C 83 % 80 % 1011,9 hPa 0,0 l/m 7,3 km/h (2 Bft) N-NO 15 0 min
07.02.2018 01:10 -0,6 C -0,4 C -0,5 C 83 % 80 % 1011,9 hPa 0,0 l/m 10,3 km/h (2 Bft) N 0 0 min
07.02.2018 01:15 -0,6 C -0,5 C -0,5 C 83 % 80 % 1011,9 hPa 0,0 l/m 4,8 km/h (1 Bft) N-NO 15 0 min
07.02.2018 01:20 -0,6 C -0,5 C -0,5 C 83 % 80 % 1011,9 hPa 0,0 l/m 6,7 km/h (2 Bft) NO 40 0 min
07.02.2018 01:25 -0,6 C -0,5 C -0,5 C 83 % 80 % 1011,9 hPa 0,0 l/m 9,1 km/h (2 Bft) NO 40 0 min
07.02.2018 01:30 -0,7 C -0,5 C -0,5 C 83 % 80 % 1011,9 hPa 0,0 l/m 9,1 km/h (2 Bft) NO 45 0 min
07.02.2018 01:35 -0,7 C -0,5 C -0,5 C 83 % 80 % 1011,9 hPa 0,0 l/m 9,1 km/h (2 Bft) O-NO 60 0 min
07.02.2018 01:40 -0,7 C -0,6 C -0,5 C 83 % 80 % 1011,9 hPa 0,0 l/m 9,1 km/h (2 Bft) N 5 0 min
07.02.2018 01:45 -0,7 C -0,6 C -0,5 C 83 % 80 % 1011,9 hPa 0,0 l/m 9,7 km/h (2 Bft) N-NO 20 0 min
07.02.2018 01:50 -0,8 C -0,6 C -0,5 C 83 % 80 % 1011,9 hPa 0,0 l/m 10,9 km/h (2 Bft) N-NO 20 0 min
07.02.2018 01:55 -0,7 C -0,6 C -0,5 C 83 % 80 % 1011,9 hPa 0,0 l/m 5,4 km/h (2 Bft) NO 50 0 min
07.02.2018 02:00 -0,7 C -0,6 C -0,5 C 83 % 80 % 1011,9 hPa 0,0 l/m 12,7 km/h (3 Bft) N-NW 335 0 min
07.02.2018 02:05 -0,8 C -0,7 C -0,5 C 83 % 80 % 1011,9 hPa 0,0 l/m 10,3 km/h (2 Bft) N-NO 30 0 min
07.02.2018 02:10 -0,8 C -0,7 C -0,5 C 83 % 80 % 1011,9 hPa 0,0 l/m 7,9 km/h (2 Bft) N 0 0 min
07.02.2018 02:15 -0,8 C -0,7 C -0,5 C 83 % 80 % 1011,9 hPa 0,0 l/m 10,3 km/h (2 Bft) N 10 0 min
07.02.2018 02:20 -0,9 C -0,7 C -0,5 C 83 % 80 % 1011,9 hPa 0,0 l/m 10,3 km/h (2 Bft) N-NO 20 0 min
07.02.2018 02:25 -0,9 C -0,8 C -0,5 C 83 % 80 % 1011,9 hPa 0,0 l/m 10,3 km/h (2 Bft) N-NO 20 0 min
07.02.2018 02:30 -0,9 C -0,8 C -0,5 C 83 % 80 % 1011,9 hPa 0,0 l/m 5,4 km/h (2 Bft) N-NO 25 0 min
07.02.2018 02:35 -0,9 C -0,8 C -0,5 C 83 % 80 % 1011,9 hPa 0,0 l/m 6,1 km/h (2 Bft) O-NO 60 0 min
07.02.2018 02:40 -0,9 C -0,8 C -0,5 C 83 % 81 % 1011,9 hPa 0,0 l/m 9,1 km/h (2 Bft) NO 35 0 min
07.02.2018 02:45 -0,9 C -0,8 C -0,5 C 83 % 81 % 1011,9 hPa 0,0 l/m 1,8 km/h (1 Bft) N-NO 25 0 min
07.02.2018 02:50 -0,9 C -0,8 C -0,5 C 83 % 81 % 1011,9 hPa 0,0 l/m 12,1 km/h (2 Bft) N-NO 15 0 min
07.02.2018 02:55 -0,9 C -0,8 C -0,5 C 83 % 80 % 1011,9 hPa 0,0 l/m 5,4 km/h (2 Bft) N-NO 20 0 min
07.02.2018 03:00 -1,0 C -0,8 C -0,5 C 83 % 81 % 1011,9 hPa 0,0 l/m 4,2 km/h (1 Bft) N 10 0 min
07.02.2018 03:05 -1,0 C -0,8 C -0,5 C 83 % 80 % 1011,9 hPa 0,0 l/m 0,6 km/h (0 Bft) N-NW 345 0 min
07.02.2018 03:10 -1,0 C -0,9 C -0,5 C 83 % 81 % 1011,9 hPa 0,0 l/m 4,8 km/h (1 Bft) O 100 0 min
07.02.2018 03:15 -1,1 C -0,9 C -0,5 C 83 % 81 % 1011,9 hPa 0,0 l/m 1,2 km/h (1 Bft) O-NO 60 0 min
07.02.2018 03:20 -1,2 C -1,0 C -0,5 C 84 % 81 % 1011,9 hPa 0,0 l/m 5,4 km/h (2 Bft) N-NW 345 0 min
07.02.2018 03:25 -1,2 C -1,0 C -0,5 C 84 % 81 % 1011,9 hPa 0,0 l/m 7,3 km/h (2 Bft) N-NO 20 0 min
07.02.2018 03:30 -1,3 C -1,1 C -0,5 C 84 % 81 % 1010,9 hPa 0,0 l/m 4,8 km/h (1 Bft) NO 45 0 min
07.02.2018 03:35 -1,3 C -1,1 C -0,5 C 84 % 81 % 1010,9 hPa 0,0 l/m 4,2 km/h (1 Bft) N-NW 345 0 min
07.02.2018 03:40 -1,4 C -1,2 C -0,5 C 85 % 82 % 1010,9 hPa 0,0 l/m 3,6 km/h (1 Bft) N 350 0 min
07.02.2018 03:45 -1,4 C -1,2 C -0,5 C 85 % 82 % 1011,9 hPa 0,0 l/m 3,6 km/h (1 Bft) N-NW 345 0 min
07.02.2018 03:50 -1,4 C -1,2 C -0,5 C 85 % 82 % 1011,9 hPa 0,0 l/m 4,2 km/h (1 Bft) N-NO 25 0 min
07.02.2018 03:55 -1,4 C -1,2 C -0,5 C 85 % 82 % 1011,9 hPa 0,0 l/m 4,2 km/h (1 Bft) N-NO 15 0 min
07.02.2018 04:00 -1,4 C -1,2 C -0,5 C 85 % 82 % 1011,9 hPa 0,0 l/m 7,9 km/h (2 Bft) N 10 0 min
07.02.2018 04:05 -1,4 C -1,2 C -0,5 C 85 % 83 % 1011,9 hPa 0,0 l/m 7,3 km/h (2 Bft) N-NO 30 0 min
07.02.2018 04:10 -1,3 C -1,2 C -0,5 C 85 % 83 % 1011,9 hPa 0,0 l/m 6,1 km/h (2 Bft) N-NO 25 0 min
07.02.2018 04:15 -1,3 C -1,2 C -0,5 C 85 % 83 % 1011,9 hPa 0,0 l/m 4,8 km/h (1 Bft) N 10 0 min
07.02.2018 04:20 -1,3 C -1,2 C -0,5 C 85 % 83 % 1011,9 hPa 0,0 l/m 7,3 km/h (2 Bft) N 350 0 min
07.02.2018 04:25 -1,2 C -1,2 C -0,5 C 85 % 83 % 1011,9 hPa 0,0 l/m 10,3 km/h (2 Bft) N 5 0 min
07.02.2018 04:30 -1,2 C -1,2 C -0,5 C 85 % 83 % 1012,9 hPa 0,0 l/m 7,9 km/h (2 Bft) N 355 0 min
07.02.2018 04:35 -1,2 C -1,2 C -0,5 C 85 % 83 % 1012,9 hPa 0,0 l/m 7,9 km/h (2 Bft) N-NO 20 0 min
07.02.2018 04:40 -1,2 C -1,1 C -0,5 C 85 % 83 % 1012,9 hPa 0,0 l/m 7,9 km/h (2 Bft) N-NO 20 0 min
07.02.2018 04:45 -1,1 C -1,1 C -0,5 C 85 % 83 % 1011,9 hPa 0,0 l/m 10,9 km/h (2 Bft) NW 310 0 min
07.02.2018 04:50 -1,1 C -1,0 C -0,5 C 84 % 82 % 1011,9 hPa 0,0 l/m 7,9 km/h (2 Bft) N-NO 30 0 min
07.02.2018 04:55 -1,1 C -1,0 C -0,5 C 85 % 82 % 1011,9 hPa 0,0 l/m 9,1 km/h (2 Bft) N-NO 15 0 min
07.02.2018 05:00 -1,1 C -1,0 C -0,5 C 84 % 82 % 1011,9 hPa 0,0 l/m 9,7 km/h (2 Bft) N-NO 15 0 min
07.02.2018 05:05 -1,1 C -1,0 C -0,5 C 84 % 82 % 1011,9 hPa 0,0 l/m 9,1 km/h (2 Bft) NO 50 0 min
07.02.2018 05:10 -1,1 C -1,0 C -0,5 C 84 % 82 % 1011,9 hPa 0,0 l/m 7,3 km/h (2 Bft) N 5 0 min
07.02.2018 05:15 -1,1 C -1,0 C -0,5 C 85 % 82 % 1010,9 hPa 0,0 l/m 6,1 km/h (2 Bft) N 355 0 min
07.02.2018 05:20 -1,1 C -1,0 C -0,5 C 84 % 82 % 1010,9 hPa 0,0 l/m 7,3 km/h (2 Bft) NO 50 0 min
07.02.2018 05:25 -1,1 C -1,0 C -0,5 C 85 % 82 % 1010,9 hPa 0,0 l/m 4,8 km/h (1 Bft) N 355 0 min
07.02.2018 05:30 -1,1 C -1,0 C -0,5 C 85 % 82 % 1011,9 hPa 0,0 l/m 8,5 km/h (2 Bft) N-NO 20 0 min
07.02.2018 05:35 -1,2 C -1,0 C -0,5 C 85 % 82 % 1011,9 hPa 0,0 l/m 9,7 km/h (2 Bft) NO 35 0 min
07.02.2018 05:40 -1,2 C -1,0 C -0,5 C 85 % 82 % 1011,9 hPa 0,0 l/m 9,7 km/h (2 Bft) N 10 0 min
07.02.2018 05:45 -1,2 C -1,0 C -0,5 C 85 % 82 % 1011,9 hPa 0,0 l/m 8,5 km/h (2 Bft) NO 35 0 min
07.02.2018 05:50 -1,3 C -1,1 C -0,5 C 85 % 83 % 1011,9 hPa 0,0 l/m 3,6 km/h (1 Bft) N-NO 25 0 min
07.02.2018 05:55 -1,3 C -1,1 C -0,5 C 85 % 83 % 1011,9 hPa 0,0 l/m 5,4 km/h (2 Bft) N-NO 15 0 min
07.02.2018 06:00 -1,3 C -1,1 C -0,5 C 85 % 83 % 1011,9 hPa 0,0 l/m 7,3 km/h (2 Bft) N 10 0 min
07.02.2018 06:05 -1,3 C -1,2 C -0,5 C 85 % 83 % 1011,9 hPa 0,0 l/m 4,2 km/h (1 Bft) N-NO 15 0 min
07.02.2018 06:10 -1,4 C -1,2 C -0,5 C 85 % 83 % 1011,9 hPa 0,0 l/m 5,4 km/h (2 Bft) N 10 0 min
07.02.2018 06:15 -1,4 C -1,2 C -0,5 C 85 % 83 % 1011,9 hPa 0,0 l/m 1,8 km/h (1 Bft) N-NO 15 0 min
07.02.2018 06:20 -1,5 C -1,2 C -0,5 C 86 % 83 % 1011,9 hPa 0,0 l/m 4,8 km/h (1 Bft) N-NO 15 0 min
07.02.2018 06:25 -1,5 C -1,3 C -0,5 C 86 % 83 % 1011,9 hPa 0,0 l/m 5,4 km/h (2 Bft) N 5 0 min
07.02.2018 06:30 -1,5 C -1,3 C -0,5 C 86 % 83 % 1011,9 hPa 0,0 l/m 5,4 km/h (2 Bft) N 5 0 min
07.02.2018 06:35 -1,8 C -1,4 C -0,5 C 87 % 83 % 1011,9 hPa 0,0 l/m 1,8 km/h (1 Bft) N 0 0 min
07.02.2018 06:40 -2,0 C -1,5 C -0,5 C 88 % 84 % 1011,9 hPa 0,0 l/m 2,4 km/h (1 Bft) N-NW 345 0 min
07.02.2018 06:45 -2,0 C -1,7 C -0,5 C 88 % 84 % 1011,9 hPa 0,0 l/m 4,2 km/h (1 Bft) N-NO 15 0 min
07.02.2018 06:50 -2,2 C -1,7 C -0,5 C 89 % 84 % 1011,9 hPa 0,0 l/m 4,8 km/h (1 Bft) N-NO 25 0 min
07.02.2018 06:55 -2,2 C -1,8 C -0,5 C 89 % 85 % 1011,9 hPa 0,0 l/m 4,2 km/h (1 Bft) N-NW 340 0 min
07.02.2018 07:00 -2,3 C -1,9 C -0,5 C 89 % 85 % 1011,9 hPa 0,0 l/m 3,6 km/h (1 Bft) N-NO 30 0 min
07.02.2018 07:05 -2,4 C -2,0 C -0,5 C 90 % 85 % 1011,9 hPa 0,0 l/m 9,1 km/h (2 Bft) N-NO 30 0 min
07.02.2018 07:10 -2,5 C -2,1 C -0,5 C 90 % 85 % 1011,9 hPa 0,0 l/m 1,8 km/h (1 Bft) NO 50 0 min
07.02.2018 07:15 -2,6 C -2,2 C -0,5 C 90 % 85 % 1013,0 hPa 0,0 l/m 4,2 km/h (1 Bft) N-NO 15 0 min
07.02.2018 07:20 -2,7 C -2,2 C -0,5 C 90 % 86 % 1013,0 hPa 0,0 l/m 3,6 km/h (1 Bft) N 350 0 min
07.02.2018 07:25 -2,7 C -2,3 C -0,5 C 91 % 86 % 1013,0 hPa 0,0 l/m 1,8 km/h (1 Bft) N-NO 25 0 min
07.02.2018 07:30 -2,8 C -2,4 C -0,5 C 91 % 86 % 1012,0 hPa 0,0 l/m 4,2 km/h (1 Bft) N-NO 25 0 min
07.02.2018 07:35 -2,8 C -2,5 C -0,5 C 91 % 86 % 1012,0 hPa 0,0 l/m 4,2 km/h (1 Bft) N-NO 25 0 min
07.02.2018 07:40 -2,9 C -2,6 C -0,5 C 91 % 86 % 1012,0 hPa 0,0 l/m 3,0 km/h (1 Bft) N-NO 20 0 min
07.02.2018 07:45 -3,0 C -2,6 C -0,5 C 91 % 86 % 1013,0 hPa 0,0 l/m 2,4 km/h (1 Bft) N 0 0 min
07.02.2018 07:50 -3,0 C -2,6 C -0,5 C 92 % 87 % 1013,0 hPa 0,0 l/m 4,8 km/h (1 Bft) N-NO 25 0 min
07.02.2018 07:55 -3,0 C -2,7 C -0,5 C 92 % 87 % 1013,0 hPa 0,0 l/m 4,8 km/h (1 Bft) N 5 0 min
07.02.2018 08:00 -3,1 C -2,7 C -0,5 C 92 % 87 % 1013,0 hPa 0,0 l/m 7,9 km/h (2 Bft) N-NO 25 0 min
07.02.2018 08:05 -3,1 C -2,8 C -0,5 C 92 % 87 % 1013,0 hPa 0,0 l/m 4,2 km/h (1 Bft) N-NO 20 0 min
07.02.2018 08:10 -3,1 C -2,8 C -0,5 C 92 % 87 % 1013,0 hPa 0,0 l/m 8,5 km/h (2 Bft) NO 40 0 min
07.02.2018 08:15 -3,1 C -2,8 C -0,5 C 92 % 87 % 1013,0 hPa 0,0 l/m 8,5 km/h (2 Bft) NO 40 0 min
07.02.2018 08:20 -3,1 C -2,8 C -0,5 C 92 % 88 % 1013,0 hPa 0,0 l/m 8,5 km/h (2 Bft) NO 40 0 min
07.02.2018 08:25 -3,1 C -2,8 C -0,5 C 92 % 88 % 1013,0 hPa 0,0 l/m 8,5 km/h (2 Bft) NO 40 0 min
07.02.2018 08:30 -3,1 C -2,8 C -0,5 C 92 % 88 % 1014,0 hPa 0,0 l/m 8,5 km/h (2 Bft) NO 40 0 min
07.02.2018 08:35 -3,1 C -2,8 C -0,5 C 92 % 88 % 1014,0 hPa 0,0 l/m 8,5 km/h (2 Bft) NO 40 0 min
07.02.2018 08:40 -3,0 C -2,8 C -0,5 C 92 % 88 % 1014,0 hPa 0,0 l/m 1,2 km/h (1 Bft) NO 55 0 min
07.02.2018 08:45 -3,0 C -2,8 C -0,5 C 92 % 88 % 1014,0 hPa 0,0 l/m 6,1 km/h (2 Bft) N 0 0 min
07.02.2018 08:50 -3,0 C -2,8 C -0,5 C 92 % 88 % 1014,0 hPa 0,0 l/m 4,8 km/h (1 Bft) N-NW 345 0 min
07.02.2018 08:55 -3,0 C -2,8 C -0,5 C 92 % 88 % 1014,0 hPa 0,0 l/m 4,2 km/h (1 Bft) N 5 0 min
07.02.2018 09:00 -3,0 C -2,8 C -0,5 C 92 % 88 % 1013,0 hPa 0,0 l/m 4,8 km/h (1 Bft) NW 315 0 min
07.02.2018 09:05 -3,0 C -2,8 C -0,5 C 92 % 88 % 1013,0 hPa 0,0 l/m 4,2 km/h (1 Bft) N 355 0 min
07.02.2018 09:10 -3,0 C -2,8 C -0,5 C 92 % 88 % 1013,0 hPa 0,0 l/m 3,6 km/h (1 Bft) O-NO 70 0 min
07.02.2018 09:15 -2,9 C -2,8 C -0,5 C 92 % 88 % 1013,0 hPa 0,0 l/m 7,3 km/h (2 Bft) N-NO 15 0 min
07.02.2018 09:20 -2,9 C -2,8 C -0,5 C 91 % 88 % 1013,0 hPa 0,0 l/m 6,1 km/h (2 Bft) N 355 0 min
07.02.2018 09:25 -2,8 C -2,7 C -0,5 C 91 % 88 % 1013,0 hPa 0,0 l/m 4,8 km/h (1 Bft) N-NO 25 0 min
07.02.2018 09:30 -2,8 C -2,7 C -0,5 C 91 % 88 % 1013,0 hPa 0,0 l/m 7,3 km/h (2 Bft) N 10 0 min
07.02.2018 09:35 -2,8 C -2,7 C -0,5 C 91 % 88 % 1013,0 hPa 0,0 l/m 6,1 km/h (2 Bft) N-NO 15 0 min
07.02.2018 09:40 -2,8 C -2,7 C -0,5 C 91 % 88 % 1013,0 hPa 0,0 l/m 6,1 km/h (2 Bft) N-NO 15 0 min
07.02.2018 09:45 -2,8 C -2,7 C -0,5 C 91 % 88 % 1014,0 hPa 0,0 l/m 5,4 km/h (2 Bft) N-NW 345 0 min
07.02.2018 09:50 -2,7 C -2,6 C -0,5 C 91 % 88 % 1014,0 hPa 0,0 l/m 4,2 km/h (1 Bft) N 0 2 min
07.02.2018 09:55 -2,6 C -2,6 C -0,5 C 91 % 88 % 1014,0 hPa 0,0 l/m 9,7 km/h (2 Bft) N-NO 25 3 min
07.02.2018 10:00 -2,4 C -2,4 C -0,5 C 90 % 88 % 1014,0 hPa 0,0 l/m 6,1 km/h (2 Bft) N-NO 15 3 min
07.02.2018 10:05 -2,2 C -2,3 C -0,5 C 90 % 88 % 1014,0 hPa 0,0 l/m 9,1 km/h (2 Bft) N-NW 345 2 min
07.02.2018 10:10 -2,2 C -2,1 C -0,5 C 90 % 88 % 1014,0 hPa 0,0 l/m 9,1 km/h (2 Bft) N-NW 345 0 min
07.02.2018 10:15 -2,2 C -2,0 C -0,5 C 90 % 86 % 1014,0 hPa 0,0 l/m 9,1 km/h (2 Bft) N-NW 345 0 min
07.02.2018 10:20 -1,5 C -1,8 C -0,5 C 86 % 87 % 1013,9 hPa 0,0 l/m 10,9 km/h (2 Bft) N-NO 20 16 min
07.02.2018 10:25 -1,3 C -1,7 C -0,5 C 85 % 86 % 1013,9 hPa 0,0 l/m 13,3 km/h (3 Bft) N-NO 20 5 min
07.02.2018 10:30 -1,1 C -1,5 C -0,5 C 85 % 85 % 1013,9 hPa 0,0 l/m 9,7 km/h (2 Bft) W-NW 300 5 min
07.02.2018 10:35 -0,8 C -1,3 C -0,5 C 84 % 84 % 1013,9 hPa 0,0 l/m 7,9 km/h (2 Bft) NO 50 5 min
07.02.2018 10:40 -0,9 C -1,1 C -0,5 C 84 % 84 % 1013,9 hPa 0,0 l/m 9,7 km/h (2 Bft) NO 40 5 min
07.02.2018 10:45 -0,7 C -1,0 C -0,5 C 83 % 83 % 1013,9 hPa 0,0 l/m 9,7 km/h (2 Bft) NO 50 5 min
07.02.2018 10:50 -0,7 C -0,9 C -0,5 C 83 % 83 % 1013,9 hPa 0,0 l/m 14,5 km/h (3 Bft) N-NO 15 3 min
07.02.2018 10:55 -0,8 C -0,8 C -0,5 C 82 % 82 % 1013,9 hPa 0,0 l/m 17,6 km/h (3 Bft) N 355 7 min
07.02.2018 11:00 -0,7 C -0,8 C -0,5 C 81 % 81 % 1014,9 hPa 0,0 l/m 13,3 km/h (3 Bft) N 5 6 min
07.02.2018 11:05 -0,5 C -0,7 C -0,5 C 81 % 80 % 1014,9 hPa 0,0 l/m 14,5 km/h (3 Bft) NO 45 4 min
07.02.2018 11:10 -0,5 C -0,6 C -0,5 C 81 % 80 % 1014,9 hPa 0,0 l/m 14,5 km/h (3 Bft) O 85 5 min
07.02.2018 11:15 -0,2 C -0,5 C -0,5 C 80 % 80 % 1013,9 hPa 0,0 l/m 6,1 km/h (2 Bft) O-NO 65 5 min
07.02.2018 11:20 0,0 C -0,4 C -0,5 C 80 % 80 % 1013,9 hPa 0,0 l/m 9,7 km/h (2 Bft) N 355 5 min
07.02.2018 11:25 0,2 C -0,3 C -0,5 C 79 % 80 % 1013,9 hPa 0,0 l/m 7,9 km/h (2 Bft) N 0 6 min
07.02.2018 11:30 0,2 C -0,1 C -0,5 C 78 % 79 % 1014,9 hPa 0,0 l/m 9,7 km/h (2 Bft) N-NW 345 4 min
07.02.2018 11:35 0,2 C 0,0 C -0,5 C 77 % 78 % 1014,9 hPa 0,0 l/m 13,3 km/h (3 Bft) NO 45 5 min
07.02.2018 11:40 0,3 C 0,0 C -0,5 C 77 % 77 % 1014,9 hPa 0,0 l/m 12,1 km/h (2 Bft) N-NO 30 5 min
07.02.2018 11:45 0,5 C 0,2 C -0,5 C 76 % 77 % 1014,9 hPa 0,0 l/m 7,9 km/h (2 Bft) N-NO 20 5 min
07.02.2018 11:50 0,6 C 0,2 C -0,5 C 76 % 77 % 1014,9 hPa 0,0 l/m 7,9 km/h (2 Bft) N-NW 340 5 min
07.02.2018 11:55 0,7 C 0,4 C -0,5 C 76 % 77 % 1014,9 hPa 0,0 l/m 12,7 km/h (3 Bft) N-NO 25 6 min
07.02.2018 12:00 0,6 C 0,5 C -0,5 C 75 % 76 % 1014,9 hPa 0,0 l/m 12,1 km/h (2 Bft) NW 320 5 min
07.02.2018 12:05 0,6 C 0,6 C -0,5 C 75 % 75 % 1014,9 hPa 0,0 l/m 14,5 km/h (3 Bft) N 350 5 min
07.02.2018 12:10 0,6 C 0,7 C -0,5 C 75 % 75 % 1014,9 hPa 0,0 l/m 9,1 km/h (2 Bft) N 0 5 min
07.02.2018 12:15 0,9 C 0,7 C -0,5 C 75 % 75 % 1014,9 hPa 0,0 l/m 10,9 km/h (2 Bft) NW 315 5 min
07.02.2018 12:20 1,2 C 0,8 C -0,5 C 74 % 75 % 1014,9 hPa 0,0 l/m 9,1 km/h (2 Bft) N 10 5 min
07.02.2018 12:25 1,2 C 0,9 C -0,5 C 74 % 75 % 1014,9 hPa 0,0 l/m 11,5 km/h (2 Bft) O-NO 75 4 min
07.02.2018 12:30 1,2 C 0,9 C -0,5 C 74 % 74 % 1013,9 hPa 0,0 l/m 11,5 km/h (2 Bft) N-NO 30 6 min
07.02.2018 12:35 1,0 C 0,9 C -0,5 C 73 % 74 % 1013,9 hPa 0,0 l/m 16,9 km/h (3 Bft) N 10 5 min
07.02.2018 12:40 0,9 C 1,0 C -0,5 C 73 % 73 % 1013,9 hPa 0,0 l/m 15,1 km/h (3 Bft) N 350 3 min
07.02.2018 12:45 1,2 C 1,0 C -0,5 C 73 % 73 % 1014,9 hPa 0,0 l/m 15,1 km/h (3 Bft) NW 310 7 min
07.02.2018 12:50 1,4 C 1,2 C -0,5 C 72 % 73 % 1014,9 hPa 0,0 l/m 12,1 km/h (2 Bft) NO 35 5 min
07.02.2018 12:55 1,7 C 1,3 C -0,5 C 72 % 72 % 1014,9 hPa 0,0 l/m 12,7 km/h (3 Bft) N-NO 15 5 min
07.02.2018 13:00 1,7 C 1,4 C -0,5 C 71 % 72 % 1014,9 hPa 0,0 l/m 11,5 km/h (2 Bft) NO 55 5 min
07.02.2018 13:05 1,5 C 1,4 C -0,5 C 71 % 71 % 1014,9 hPa 0,0 l/m 14,5 km/h (3 Bft) NO 40 2 min
07.02.2018 13:10 1,3 C 1,4 C -0,5 C 71 % 71 % 1014,9 hPa 0,0 l/m 13,3 km/h (3 Bft) N-NO 20 3 min
07.02.2018 13:15 1,4 C 1,4 C -0,5 C 71 % 71 % 1013,9 hPa 0,0 l/m 10,9 km/h (2 Bft) N-NO 25 6 min
07.02.2018 13:20 2,1 C 1,6 C -0,5 C 69 % 71 % 1013,9 hPa 0,0 l/m 6,7 km/h (2 Bft) N-NO 20 4 min
07.02.2018 13:25 2,2 C 1,8 C -0,5 C 69 % 70 % 1013,9 hPa 0,0 l/m 14,5 km/h (3 Bft) N 10 6 min
07.02.2018 13:30 2,3 C 2,0 C -0,5 C 67 % 69 % 1014,9 hPa 0,0 l/m 12,1 km/h (2 Bft) N-NO 25 4 min
07.02.2018 13:35 2,3 C 2,1 C -0,5 C 67 % 68 % 1014,9 hPa 0,0 l/m 9,1 km/h (2 Bft) NO 50 3 min
07.02.2018 13:40 2,3 C 2,1 C -0,5 C 66 % 68 % 1014,9 hPa 0,0 l/m 11,5 km/h (2 Bft) O 85 6 min
07.02.2018 13:45 2,5 C 2,1 C -0,5 C 67 % 68 % 1013,9 hPa 0,0 l/m 9,1 km/h (2 Bft) NO 40 4 min
07.02.2018 13:50 2,6 C 2,1 C -0,5 C 66 % 68 % 1013,9 hPa 0,0 l/m 9,1 km/h (2 Bft) N-NO 20 6 min
07.02.2018 13:55 2,7 C 2,1 C -0,5 C 66 % 68 % 1013,9 hPa 0,0 l/m 6,1 km/h (2 Bft) O-NO 60 4 min
07.02.2018 14:00 2,7 C 2,1 C -0,5 C 64 % 68 % 1014,9 hPa 0,0 l/m 10,9 km/h (2 Bft) O 95 6 min
07.02.2018 14:05 3,1 C 2,1 C -0,5 C 64 % 68 % 1014,9 hPa 0,0 l/m 9,7 km/h (2 Bft) NO 50 7 min
07.02.2018 14:10 3,2 C 2,1 C -0,5 C 63 % 68 % 1014,9 hPa 0,0 l/m 9,7 km/h (2 Bft) N 10 3 min
07.02.2018 14:15 3,4 C 2,9 C -0,5 C 63 % 65 % 1013,9 hPa 0,0 l/m 9,7 km/h (2 Bft) NW 320 7 min
07.02.2018 14:20 3,3 C 2,9 C -0,5 C 61 % 65 % 1013,9 hPa 0,0 l/m 11,5 km/h (2 Bft) N-NO 20 3 min
07.02.2018 14:25 3,6 C 2,9 C -0,5 C 61 % 65 % 1013,9 hPa 0,0 l/m 6,7 km/h (2 Bft) N-NO 25 5 min
07.02.2018 14:30 3,4 C 2,9 C -0,3 C 60 % 65 % 1013,9 hPa 0,0 l/m 9,1 km/h (2 Bft) N-NO 30 5 min
07.02.2018 14:35 3,2 C 2,9 C -0,3 C 59 % 65 % 1013,9 hPa 0,0 l/m 16,3 km/h (3 Bft) N 10 5 min
07.02.2018 14:40 3,2 C 3,1 C -0,3 C 59 % 61 % 1013,9 hPa 0,0 l/m 12,7 km/h (3 Bft) N-NO 30 5 min
07.02.2018 14:45 3,2 C 3,1 C -0,3 C 59 % 61 % 1013,9 hPa 0,0 l/m 12,1 km/h (2 Bft) N-NO 15 6 min
07.02.2018 14:50 3,1 C 3,1 C -0,3 C 60 % 61 % 1013,9 hPa 0,0 l/m 12,7 km/h (3 Bft) W-SW 240 4 min
07.02.2018 14:55 3,2 C 3,1 C -0,3 C 60 % 62 % 1013,9 hPa 0,0 l/m 12,1 km/h (2 Bft) NO 35 6 min
07.02.2018 15:00 3,3 C 3,1 C -0,3 C 61 % 63 % 1014,9 hPa 0,0 l/m 12,7 km/h (3 Bft) N 10 5 min
07.02.2018 15:05 3,4 C 3,0 C -0,3 C 61 % 63 % 1014,9 hPa 0,0 l/m 11,5 km/h (2 Bft) N-NO 20 5 min
07.02.2018 15:10 3,2 C 3,0 C -0,3 C 61 % 63 % 1014,9 hPa 0,0 l/m 15,1 km/h (3 Bft) O-NO 60 5 min
07.02.2018 15:15 3,3 C 2,7 C -0,3 C 61 % 63 % 1013,9 hPa 0,0 l/m 8,5 km/h (2 Bft) NO 40 5 min
07.02.2018 15:20 3,0 C 2,7 C -0,3 C 61 % 63 % 1013,9 hPa 0,0 l/m 9,7 km/h (2 Bft) N-NW 335 5 min
07.02.2018 15:25 3,1 C 2,7 C -0,3 C 62 % 63 % 1013,9 hPa 0,0 l/m 10,9 km/h (2 Bft) O-NO 65 3 min
07.02.2018 15:30 3,1 C 2,8 C -0,3 C 62 % 63 % 1014,9 hPa 0,0 l/m 10,9 km/h (2 Bft) O-SO 110 7 min
07.02.2018 15:35 3,3 C 2,7 C -0,3 C 61 % 63 % 1014,9 hPa 0,0 l/m 9,7 km/h (2 Bft) N-NW 340 5 min
07.02.2018 15:40 3,3 C 2,7 C -0,3 C 61 % 64 % 1014,9 hPa 0,0 l/m 9,1 km/h (2 Bft) N 355 5 min
07.02.2018 15:45 3,1 C 2,7 C -0,3 C 61 % 64 % 1014,9 hPa 0,0 l/m 9,1 km/h (2 Bft) NW 325 5 min
07.02.2018 15:50 3,1 C 2,6 C -0,3 C 61 % 63 % 1014,9 hPa 0,0 l/m 7,9 km/h (2 Bft) W 275 5 min
07.02.2018 15:55 2,9 C 2,4 C -0,3 C 61 % 64 % 1014,9 hPa 0,0 l/m 12,1 km/h (2 Bft) NO 35 5 min
07.02.2018 16:00 2,9 C 2,3 C -0,3 C 62 % 64 % 1014,9 hPa 0,0 l/m 6,7 km/h (2 Bft) NW 315 5 min
07.02.2018 16:05 2,8 C 2,3 C -0,3 C 62 % 64 % 1014,9 hPa 0,0 l/m 9,1 km/h (2 Bft) SO 130 5 min
07.02.2018 16:10 2,7 C 2,2 C -0,3 C 62 % 64 % 1014,9 hPa 0,0 l/m 9,1 km/h (2 Bft) NO 35 6 min
07.02.2018 16:15 2,7 C 2,2 C -0,3 C 62 % 64 % 1014,9 hPa 0,0 l/m 9,7 km/h (2 Bft) NO 35 2 min
07.02.2018 16:20 2,4 C 2,2 C -0,3 C 63 % 64 % 1014,9 hPa 0,0 l/m 6,7 km/h (2 Bft) N 350 7 min
07.02.2018 16:25 2,4 C 2,0 C -0,3 C 63 % 64 % 1014,9 hPa 0,0 l/m 7,3 km/h (2 Bft) W-NW 290 1 min
07.02.2018 16:30 2,4 C 2,0 C -0,3 C 63 % 65 % 1014,9 hPa 0,0 l/m 5,4 km/h (2 Bft) N-NW 330 4 min
07.02.2018 16:35 2,5 C 1,9 C -0,3 C 63 % 65 % 1014,9 hPa 0,0 l/m 6,1 km/h (2 Bft) NW 305 3 min
07.02.2018 16:40 2,2 C 1,9 C -0,3 C 63 % 65 % 1014,9 hPa 0,0 l/m 6,7 km/h (2 Bft) N-NO 25 5 min
07.02.2018 16:45 2,0 C 1,8 C -0,3 C 63 % 66 % 1013,9 hPa 0,0 l/m 6,1 km/h (2 Bft) W-SW 250 4 min
07.02.2018 16:50 1,9 C 1,7 C -0,3 C 64 % 66 % 1013,9 hPa 0,0 l/m 4,8 km/h (1 Bft) W-SW 240 6 min
07.02.2018 16:55 1,7 C 1,6 C -0,3 C 64 % 66 % 1013,9 hPa 0,0 l/m 10,9 km/h (2 Bft) N-NO 20 1 min
07.02.2018 17:00 1,6 C 1,6 C -0,3 C 65 % 66 % 1014,9 hPa 0,0 l/m 7,9 km/h (2 Bft) NO 40 0 min
07.02.2018 17:05 1,4 C 1,6 C -0,3 C 65 % 66 % 1014,9 hPa 0,0 l/m 9,7 km/h (2 Bft) N 0 0 min
07.02.2018 17:10 1,4 C 1,6 C -0,5 C 65 % 66 % 1014,9 hPa 0,0 l/m 7,3 km/h (2 Bft) N-NO 20 0 min
07.02.2018 17:15 1,3 C 1,4 C -0,5 C 66 % 66 % 1013,9 hPa 0,0 l/m 7,9 km/h (2 Bft) N 0 0 min
07.02.2018 17:20 1,1 C 1,3 C -0,5 C 66 % 67 % 1013,9 hPa 0,0 l/m 4,8 km/h (1 Bft) N 350 0 min
07.02.2018 17:25 0,9 C 1,3 C -0,5 C 66 % 67 % 1013,9 hPa 0,0 l/m 7,9 km/h (2 Bft) N-NO 25 0 min
07.02.2018 17:30 0,8 C 1,1 C -0,5 C 66 % 67 % 1014,9 hPa 0,0 l/m 7,3 km/h (2 Bft) NO 35 0 min
07.02.2018 17:35 0,7 C 1,1 C -0,5 C 67 % 67 % 1014,9 hPa 0,0 l/m 4,8 km/h (1 Bft) N-NO 25 0 min
07.02.2018 17:40 0,6 C 1,0 C -0,5 C 68 % 67 % 1014,9 hPa 0,0 l/m 8,5 km/h (2 Bft) N 355 0 min
07.02.2018 17:45 0,4 C 0,9 C -0,5 C 68 % 67 % 1014,9 hPa 0,0 l/m 3,0 km/h (1 Bft) N-NO 20 0 min
07.02.2018 17:50 0,3 C 0,8 C -0,5 C 69 % 67 % 1014,9 hPa 0,0 l/m 4,2 km/h (1 Bft) N-NO 25 0 min
07.02.2018 17:55 0,3 C 0,7 C -0,5 C 69 % 68 % 1014,9 hPa 0,0 l/m 8,5 km/h (2 Bft) W-NW 290 0 min
07.02.2018 18:00 0,2 C 0,6 C -0,5 C 69 % 68 % 1014,9 hPa 0,0 l/m 6,1 km/h (2 Bft) N-NO 15 0 min
07.02.2018 18:05 0,2 C 0,5 C -0,5 C 69 % 68 % 1014,9 hPa 0,0 l/m 7,3 km/h (2 Bft) N 350 0 min
07.02.2018 18:10 0,1 C 0,4 C -0,5 C 69 % 68 % 1014,9 hPa 0,0 l/m 4,8 km/h (1 Bft) O-NO 65 0 min
07.02.2018 18:15 0,0 C 0,4 C -0,5 C 70 % 68 % 1015,9 hPa 0,0 l/m 6,1 km/h (2 Bft) NO 45 0 min
07.02.2018 18:20 0,0 C 0,3 C -0,5 C 70 % 69 % 1015,9 hPa 0,0 l/m 3,6 km/h (1 Bft) NO 35 0 min
07.02.2018 18:25 0,0 C 0,2 C -0,5 C 70 % 69 % 1015,9 hPa 0,0 l/m 4,2 km/h (1 Bft) N 355 0 min
07.02.2018 18:30 -0,1 C 0,2 C -0,5 C 70 % 69 % 1015,9 hPa 0,0 l/m 4,8 km/h (1 Bft) NO 40 0 min
07.02.2018 18:35 -0,1 C 0,0 C -0,5 C 71 % 69 % 1015,9 hPa 0,0 l/m 3,0 km/h (1 Bft) N 5 0 min
07.02.2018 18:40 -0,2 C 0,0 C -0,5 C 71 % 69 % 1015,9 hPa 0,0 l/m 7,3 km/h (2 Bft) N 10 0 min
07.02.2018 18:45 -0,2 C 0,0 C -0,5 C 71 % 70 % 1016,9 hPa 0,0 l/m 4,8 km/h (1 Bft) N 5 0 min
07.02.2018 18:50 -0,3 C 0,0 C -0,5 C 71 % 70 % 1016,9 hPa 0,0 l/m 4,8 km/h (1 Bft) NO 35 0 min
07.02.2018 18:55 -0,4 C -0,1 C -0,5 C 71 % 70 % 1016,9 hPa 0,0 l/m 3,0 km/h (1 Bft) N-NO 15 0 min
07.02.2018 19:00 -0,4 C -0,2 C -0,5 C 72 % 71 % 1015,9 hPa 0,0 l/m 4,2 km/h (1 Bft) N-NO 25 0 min
07.02.2018 19:05 -0,5 C -0,3 C -0,5 C 72 % 71 % 1015,9 hPa 0,0 l/m 1,8 km/h (1 Bft) N-NO 20 0 min
07.02.2018 19:10 -0,5 C -0,3 C -0,5 C 73 % 71 % 1015,9 hPa 0,0 l/m 2,4 km/h (1 Bft) N-NO 30 0 min
07.02.2018 19:15 -0,5 C -0,3 C -0,5 C 72 % 71 % 1015,9 hPa 0,0 l/m 1,8 km/h (1 Bft) N-NO 25 0 min
07.02.2018 19:20 -0,6 C -0,4 C -0,5 C 73 % 71 % 1015,9 hPa 0,0 l/m 3,0 km/h (1 Bft) N-NO 25 0 min
07.02.2018 19:25 -0,6 C -0,4 C -0,5 C 73 % 72 % 1015,9 hPa 0,0 l/m 2,4 km/h (1 Bft) N 5 0 min
07.02.2018 19:30 -0,8 C -0,5 C -0,5 C 73 % 72 % 1015,9 hPa 0,0 l/m 0,6 km/h (0 Bft) N-NO 20 0 min
07.02.2018 19:35 -0,8 C -0,5 C -0,5 C 74 % 72 % 1015,9 hPa 0,0 l/m 1,8 km/h (1 Bft) N-NO 15 0 min
07.02.2018 19:40 -0,8 C -0,6 C -0,5 C 74 % 72 % 1015,9 hPa 0,0 l/m 1,8 km/h (1 Bft) NW 315 0 min
07.02.2018 19:45 -0,9 C -0,7 C -0,5 C 74 % 73 % 1016,9 hPa 0,0 l/m 1,2 km/h (1 Bft) N 350 0 min
07.02.2018 19:50 -1,0 C -0,7 C -0,5 C 75 % 73 % 1016,9 hPa 0,0 l/m 0,6 km/h (0 Bft) N-NO 25 0 min
07.02.2018 19:55 -1,0 C -0,8 C -0,5 C 75 % 73 % 1016,9 hPa 0,0 l/m 1,8 km/h (1 Bft) N 10 0 min
07.02.2018 20:00 -1,1 C -1,0 C -0,5 C 76 % 73 % 1016,9 hPa 0,0 l/m 2,4 km/h (1 Bft) N 350 0 min
07.02.2018 20:05 -1,1 C -1,0 C -0,5 C 76 % 74 % 1016,9 hPa 0,0 l/m 3,0 km/h (1 Bft) N 0 0 min
07.02.2018 20:10 -1,1 C -1,0 C -0,5 C 76 % 75 % 1016,9 hPa 0,0 l/m 2,4 km/h (1 Bft) N 0 0 min
07.02.2018 20:15 -1,2 C -1,1 C -0,5 C 76 % 74 % 1017,0 hPa 0,0 l/m 3,6 km/h (1 Bft) N-NO 25 0 min
07.02.2018 20:20 -1,2 C -1,1 C -0,5 C 76 % 74 % 1017,0 hPa 0,0 l/m 1,8 km/h (1 Bft) N 0 0 min
07.02.2018 20:25 -1,2 C -1,1 C -0,8 C 76 % 75 % 1017,0 hPa 0,0 l/m 1,8 km/h (1 Bft) O 80 0 min
07.02.2018 20:30 -1,3 C -1,2 C -0,8 C 76 % 75 % 1017,0 hPa 0,0 l/m 1,8 km/h (1 Bft) O-NO 60 0 min
07.02.2018 20:35 -1,3 C -1,2 C -0,8 C 76 % 75 % 1017,0 hPa 0,0 l/m 1,2 km/h (1 Bft) N 10 0 min
07.02.2018 20:40 -1,3 C -1,2 C -0,8 C 76 % 75 % 1017,0 hPa 0,0 l/m 1,2 km/h (1 Bft) N-NO 25 0 min
07.02.2018 20:45 -1,4 C -1,2 C -0,8 C 77 % 75 % 1017,0 hPa 0,0 l/m 2,4 km/h (1 Bft) NO 35 0 min
07.02.2018 20:50 -1,4 C -1,2 C -0,8 C 77 % 75 % 1017,0 hPa 0,0 l/m 2,4 km/h (1 Bft) N-NO 25 0 min
07.02.2018 20:55 -1,5 C -1,3 C -0,8 C 77 % 75 % 1017,0 hPa 0,0 l/m 2,4 km/h (1 Bft) N 10 0 min
07.02.2018 21:00 -1,5 C -1,3 C -0,8 C 77 % 75 % 1017,0 hPa 0,0 l/m 1,2 km/h (1 Bft) N-NO 25 0 min
07.02.2018 21:05 -1,6 C -1,3 C -0,8 C 78 % 75 % 1017,0 hPa 0,0 l/m 0,6 km/h (0 Bft) N-NO 25 0 min
07.02.2018 21:10 -1,5 C -1,4 C -0,8 C 78 % 75 % 1017,0 hPa 0,0 l/m 1,8 km/h (1 Bft) N 0 0 min
07.02.2018 21:15 -1,7 C -1,4 C -0,8 C 78 % 76 % 1017,0 hPa 0,0 l/m 0,6 km/h (0 Bft) W-NW 300 0 min
07.02.2018 21:20 -1,8 C -1,5 C -0,8 C 78 % 76 % 1017,0 hPa 0,0 l/m 0,0 km/h (0 Bft) N 5 0 min
07.02.2018 21:25 -1,9 C -1,6 C -0,8 C 79 % 77 % 1017,0 hPa 0,0 l/m 0,0 km/h (0 Bft) N 350 0 min
07.02.2018 21:30 -1,9 C -1,7 C -0,8 C 80 % 77 % 1017,0 hPa 0,0 l/m 0,6 km/h (0 Bft) NW 305 0 min
07.02.2018 21:35 -1,9 C -1,7 C -0,8 C 80 % 77 % 1017,0 hPa 0,0 l/m 0,6 km/h (0 Bft) NW 320 0 min
07.02.2018 21:40 -1,9 C -1,7 C -0,8 C 80 % 77 % 1017,0 hPa 0,0 l/m 0,6 km/h (0 Bft) N 5 0 min
07.02.2018 21:45 -1,9 C -1,7 C -0,8 C 80 % 78 % 1017,0 hPa 0,0 l/m 0,6 km/h (0 Bft) N-NW 345 0 min
07.02.2018 21:50 -2,0 C -1,8 C -0,8 C 81 % 78 % 1017,0 hPa 0,0 l/m 0,6 km/h (0 Bft) N-NW 335 0 min
07.02.2018 21:55 -2,1 C -1,8 C -0,8 C 81 % 78 % 1017,0 hPa 0,0 l/m 0,0 km/h (0 Bft) NW 325 0 min
07.02.2018 22:00 -2,2 C -2,0 C -0,8 C 81 % 78 % 1017,0 hPa 0,0 l/m 0,0 km/h (0 Bft) N-NO 25 0 min
07.02.2018 22:05 -2,2 C -2,1 C -0,8 C 81 % 78 % 1017,0 hPa 0,0 l/m 1,2 km/h (1 Bft) N 350 0 min
07.02.2018 22:10 -2,2 C -2,1 C -0,8 C 82 % 78 % 1017,0 hPa 0,0 l/m 0,6 km/h (0 Bft) N-NO 15 0 min
07.02.2018 22:15 -2,2 C -2,2 C -0,8 C 81 % 79 % 1017,0 hPa 0,0 l/m 0,6 km/h (0 Bft) N-NO 20 0 min
07.02.2018 22:20 -2,2 C -2,2 C -0,8 C 81 % 79 % 1017,0 hPa 0,0 l/m 0,6 km/h (0 Bft) N-NO 30 0 min
07.02.2018 22:25 -2,2 C -2,2 C -0,8 C 81 % 79 % 1017,0 hPa 0,0 l/m 0,0 km/h (0 Bft) O-SO 110 0 min
07.02.2018 22:30 -2,3 C -2,4 C -0,8 C 81 % 79 % 1018,0 hPa 0,0 l/m 0,0 km/h (0 Bft) O-SO 110 0 min
07.02.2018 22:35 -2,4 C -2,4 C -0,8 C 81 % 79 % 1018,0 hPa 0,0 l/m 0,0 km/h (0 Bft) O-SO 120 0 min
07.02.2018 22:40 -2,4 C -2,4 C -0,8 C 81 % 79 % 1018,0 hPa 0,0 l/m 0,0 km/h (0 Bft) SO 145 0 min
07.02.2018 22:45 -2,5 C -2,4 C -0,8 C 81 % 79 % 1017,0 hPa 0,0 l/m 0,0 km/h (0 Bft) S 185 0 min
07.02.2018 22:50 -2,6 C -2,6 C -0,8 C 82 % 79 % 1017,0 hPa 0,0 l/m 0,0 km/h (0 Bft) S 180 0 min
07.02.2018 22:55 -2,5 C -2,6 C -0,8 C 82 % 80 % 1017,0 hPa 0,0 l/m 0,0 km/h (0 Bft) SO 135 0 min
07.02.2018 23:00 -2,6 C -2,6 C -0,8 C 82 % 79 % 1017,0 hPa 0,0 l/m 0,0 km/h (0 Bft) S-SW 205 0 min
07.02.2018 23:05 -2,5 C -2,6 C -0,8 C 82 % 80 % 1017,0 hPa 0,0 l/m 0,0 km/h (0 Bft) NW 305 0 min
07.02.2018 23:10 -2,6 C -2,6 C -0,8 C 82 % 80 % 1017,0 hPa 0,0 l/m 0,0 km/h (0 Bft) N 0 0 min
07.02.2018 23:15 -2,7 C -2,6 C -0,8 C 83 % 80 % 1017,0 hPa 0,0 l/m 0,0 km/h (0 Bft) N 355 0 min
07.02.2018 23:20 -2,9 C -2,8 C -0,8 C 83 % 80 % 1017,0 hPa 0,0 l/m 0,0 km/h (0 Bft) N-NO 15 0 min
07.02.2018 23:25 -2,9 C -2,9 C -0,8 C 83 % 80 % 1017,0 hPa 0,0 l/m 0,0 km/h (0 Bft) N-NO 20 0 min
07.02.2018 23:30 -2,9 C -2,9 C -0,8 C 84 % 80 % 1017,0 hPa 0,0 l/m 0,0 km/h (0 Bft) NO 40 0 min
07.02.2018 23:35 -2,9 C -3,0 C -0,8 C 84 % 81 % 1017,0 hPa 0,0 l/m 0,0 km/h (0 Bft) O 80 0 min
07.02.2018 23:40 -2,9 C -3,0 C -0,8 C 84 % 80 % 1017,0 hPa 0,0 l/m 0,0 km/h (0 Bft) O-NO 65 0 min
07.02.2018 23:45 -3,0 C -3,1 C -0,8 C 84 % 81 % 1017,0 hPa 0,0 l/m 0,0 km/h (0 Bft) N-NW 330 0 min
07.02.2018 23:50 -3,1 C -3,1 C -0,8 C 84 % 81 % 1017,0 hPa 0,0 l/m 0,0 km/h (0 Bft) N 355 0 min
07.02.2018 23:55 -3,0 C -3,1 C -0,8 C 84 % 81 % 1017,0 hPa 0,0 l/m 0,0 km/h (0 Bft) NO 45 0 min
_ Min-Zeit 08:00 23:45 20:25 14:35 14:40 00:45 - 21:20 - - -
Minimum _ -3,1 C -3,1 C -0,8 C 59 % 61 % 1010,9 hPa - 0,0 km/h (0 Bft) - - -
_ Max-Zeit 14:25 14:40 00:00 07:50 08:20 22:30 00:00 10:55 - - 10:20
Maximum _ 3,6 C 3,1 C -0,3 C 92 % 88 % 1018,0 hPa 0,0 l/m 17,6 km/h
N (3 Bft)
- - 16 min
Durchschnitt _ -0,6 C -0,5 C -0,5 C 78 % 77 % 1014,1 hPa #0,0 l/m 6,5 km/h (2 Bft) N-NO - #6:46 h